星链-3560 (STARLINK-3560 )

导读

STARLINK-3560是美国SpaceX星链互联网卫星计划中的一颗卫星,于2022年3月3日发射入轨,属于Starlink Group 4-10任务批次。星链计划旨在构建全球卫星互联网星座,该卫星主要为全球偏远地区等提供低延迟、高速率的宽带互联网接入服务,推进全球网络覆盖基础设施建设。

基本信息
目录编号:
51859
目录名称:
STARLINK-3560
国际标识:
2022-022H
轨道中心:
EARTH
卫星名称:
星链-3560
卫星全名:
星链-3560 (STARLINK-3560 )
卫星状态:
在轨 (已飞行1567 天)
发射日期:
2022-03-03 UTC
国别 :
美国 (US)
星等 :
--
轨道信息
数据来源 国际轨道数据
星历时间: 2026-06-17T19:30:40+0800
5小时前
查看轨道信息
半长轴: 6917.904km
偏心率: 0.0001248
轨道倾角: 53.161°
近地点辐角 96.285°
升交点赤经 281.058°
平近点角 263.828°
近地点: 538.903km
远地点: 540.631km
周期: 95.438分钟
每日圈数: 15.088324
详细信息
固有亮度:
5
最大亮度:
2.5
卫星平台:
Starlink v1.5
覆盖范围:
全球
运营商:
太空探索技术公司
运营商所在国:
美国
制造商(研发单位):
太空探索技术公司
制造商所在国:
美国
使用方式:
暂无
卫星简介
星链(Starlink)计划是由太空探索技术公司(SpaceX)提出的一个巨型低轨卫星互联网星座项目,计划在2019年至2024年间在太空搭建由约1.2万颗卫星组成的“星链”网络,其中1584颗将部署在地球上空550千米处的近地轨道,并从2020年开始工作。该卫星仍在工作。
2D轨道图
3D轨道图
轨道高度分析图
轨道倾角分析图
轨道综合分析图
查看轨道综合分析图